CW4438 Weather Reports


Display with metric or nautical units.
time (UTC)temp
F
wind
direction
speed
MPH
gust
MPH
rain 1hr
in
rain 24hr
in
rain mn
in
humidity
%
barometer
mb
20260905224103 101 148 1.0 5.0 0.00 0.00 0.00 33 1011.9
20260905223603 102 319 1.0 5.0 0.00 0.00 0.00 32 1011.9
20260905223103 102 170 1.0 4.0 0.00 0.00 0.00 32 1011.9
20260905222602 102 146 1.0 5.0 0.00 0.00 0.00 33 1012.0
20260905222103 102 46 2.0 5.0 0.00 0.00 0.00 33 1012.0
20260905221603 103 91 2.0 6.0 0.00 0.00 0.00 32 1012.0
20260905221102 103 145 2.0 6.0 0.00 0.00 0.00 32 1012.0
20260905220603 103 123 1.0 5.0 0.00 0.00 0.00 32 1012.0
20260905215603 103 27 1.0 3.0 0.00 0.00 0.00 32 1012.0
20260905215103 103 69 2.0 6.0 0.00 0.00 0.00 33 1012.1
20260905214102 103 124 2.0 7.0 0.00 0.00 0.00 31 1012.2
20260905213603 104 80 3.0 7.0 0.00 0.00 0.00 31 1012.3
20260905213103 103 182 3.0 8.0 0.00 0.00 0.00 31 1012.3
20260905212602 104 149 2.0 8.0 0.00 0.00 0.00 31 1012.2
20260905212104 104 119 2.0 7.0 0.00 0.00 0.00 30 1012.4
20260905211605 104 285 3.0 7.0 0.00 0.00 0.00 30 1012.4
20260905211104 104 225 2.0 7.0 0.00 0.00 0.00 28 1012.5
20260905210604 104 299 1.0 5.0 0.00 0.00 0.00 29 1012.5
20260905210104 104 83 2.0 5.0 0.00 0.00 0.00 29 1012.6
20260905204603 104 179 3.0 7.0 0.00 0.00 0.00 28 1013.0
20260905204103 104 163 3.0 6.0 0.00 0.00 0.00 28 1012.9
20260905203103 105 115 2.0 6.0 0.00 0.00 0.00 28 1013.1
20260905202557 105 186 2.0 6.0 0.00 0.00 0.00 29 1013.2
20260905202056 105 147 2.0 7.0 0.00 0.00 0.00 29 1013.3
20260905201056 104 146 2.0 5.0 0.00 0.00 0.00 30 1013.4
20260905200556 103 198 2.0 4.0 0.00 0.00 0.00 28 1013.5
20260905200054 103 146 2.0 5.0 0.00 0.00 0.00 31 1013.6
20260905195554 102 32 2.0 5.0 0.00 0.00 0.00 32 1013.8
20260905195054 102 86 2.0 5.0 0.00 0.00 0.00 32 1013.8
20260905194554 102 5 1.0 4.0 0.00 0.00 0.00 34 1013.9
20260905193552 102 48 2.0 5.0 0.00 0.00 0.00 34 1014.0
20260905193053 103 90 2.0 4.0 0.00 0.00 0.00 34 1014.0
20260905192553 103 321 2.0 4.0 0.00 0.00 0.00 35 1014.0
20260905192050 103 20 2.0 8.0 0.00 0.00 0.00 34 1014.2
20260905191544 103 36 3.0 8.0 0.00 0.00 0.00 36 1014.2
20260905191039 102 168 2.0 7.0 0.00 0.00 0.00 35 1014.3
20260905190531 102 130 2.0 5.0 0.00 0.00 0.00 35 1014.3
20260905190026 102 314 2.0 5.0 0.00 0.00 0.00 34 1014.4
20260905185520 102 133 2.0 5.0 0.00 0.00 0.00 35 1014.5
20260905185014 102 182 3.0 6.0 0.00 0.00 0.00 36 1014.6
20260905184514 101 203 3.0 6.0 0.00 0.00 0.00 36 1014.7
20260905184015 101 77 2.0 5.0 0.00 0.00 0.00 36 1014.7
20260905183514 101 214 2.0 5.0 0.00 0.00 0.00 36 1014.8
20260905183014 100 223 2.0 6.0 0.00 0.00 0.00 36 1014.9
20260905182515 101 124 2.0 6.0 0.00 0.00 0.00 37 1015.0
20260905182015 101 122 2.0 6.0 0.00 0.00 0.00 36 1015.2
20260905181013 102 63 2.0 5.0 0.00 0.00 0.00 35 1015.1
20260905180512 102 293 2.0 5.0 0.00 0.00 0.00 36 1015.2
20260905175513 102 57 2.0 4.0 0.00 0.00 0.00 35 1015.3
20260905175013 102 248 2.0 4.0 0.00 0.00 0.00 36 1015.3
20260905174510 101 254 2.0 6.0 0.00 0.00 0.00 38 1015.4
20260905174004 100 232 2.0 6.0 0.00 0.00 0.00 37 1015.5
20260905173004 100 26 1.0 5.0 0.00 0.00 0.00 39 1015.6
20260905172002 100 103 2.0 4.0 0.00 0.00 0.00 38 1015.8
20260905171003 100 11 2.0 5.0 0.00 0.00 0.00 40 1015.9
20260905170502 100 174 2.0 5.0 0.00 0.00 0.00 39 1015.9
20260905170002 100 212 2.0 5.0 0.00 0.00 0.00 39 1016.0
20260905165503 99 219 2.0 5.0 0.00 0.00 0.00 40 1016.0
20260905165007 98 212 2.0 5.0 0.00 0.00 0.00 41 1016.0
20260905164502 98 145 1.0 3.0 0.00 0.00 0.00 43 1016.1
20260905164004 97 82 2.0 4.0 0.00 0.00 0.00 42 1016.1
20260905162504 97 75 2.0 5.0 0.00 0.00 0.00 43 1016.2
20260905161002 95 45 1.0 4.0 0.00 0.00 0.00 47 1016.2
20260905160502 95 184 1.0 4.0 0.00 0.00 0.00 46 1016.2
20260905160003 95 61 2.0 6.0 0.00 0.00 0.00 45 1016.2
20260905155002 95 280 2.0 5.0 0.00 0.00 0.00 46 1016.1
20260905154503 95 198 2.0 4.0 0.00 0.00 0.00 47 1016.1
20260905153002 94 29 1.0 3.0 0.00 0.00 0.00 48 1016.2
20260905152502 94 197 1.0 6.0 0.00 0.00 0.00 48 1016.1
20260905151503 94 167 2.0 6.0 0.00 0.00 0.00 49 1016.1
20260905151004 94 200 1.0 5.0 0.00 0.00 0.00 49 1016.1
20260905150503 93 228 1.0 5.0 0.00 0.00 0.00 49 1016.1
20260905145504 92 198 1.0 2.0 0.00 0.00 0.00 52 1016.0
20260905145004 92 192 1.0 3.0 0.00 0.00 0.00 54 1016.0
20260905144504 91 252 2.0 5.0 0.00 0.00 0.00 54 1015.9
20260905144004 90 234 2.0 5.0 0.00 0.00 0.00 55 1016.0
20260905143504 89 229 1.0 4.0 0.00 0.00 0.00 56 1016.0
20260905143004 89 83 1.0 4.0 0.00 0.00 0.00 57 1015.9
20260905142504 88 254 1.0 4.0 0.00 0.00 0.00 59 1015.9
20260905142002 87 355 1.0 4.0 0.00 0.00 0.00 61 1015.9
20260905141502 86 213 1.0 4.0 0.00 0.00 0.00 62 1015.9
20260905141002 85 254 1.0 3.0 0.00 0.00 0.00 65 1015.9
20260905140003 83 232 1.0 4.0 0.00 0.00 0.00 69 1016.0
20260905135502 82 240 1.0 4.0 0.00 0.00 0.00 71 1016.0
20260905135003 80 271 1.0 3.0 0.00 0.00 0.00 75 1015.9
20260905134503 79 192 1.0 2.0 0.00 0.00 0.00 76 1016.0
20260905133502 77 215 0.0 2.0 0.00 0.00 0.00 80 1016.0
20260905133003 77 155 0.0 1.0 0.00 0.00 0.00 81 1016.0
20260905132501 76 155 0.0 1.0 0.00 0.00 0.00 83 1016.0
20260905131944 76 155 0.0 1.0 0.00 0.00 0.00 84 1015.8
20260905131439 75 155 0.0 1.0 0.00 0.00 0.00 85 1015.8
20260905130938 75 155 0.0 1.0 0.00 0.00 0.00 86 1015.8
20260905130436 74 155 0.0 0.0 0.00 0.00 0.00 87 1015.8
20260905125439 73 155 0.0 0.0 0.00 0.00 0.00 88 1015.7
20260905123932 72 155 0.0 0.0 0.00 0.00 0.00 87 1015.7
20260905123432 72 155 0.0 0.0 0.00 0.00 0.00 87 1015.7
20260905122432 72 155 0.0 0.0 0.00 0.00 0.00 87 1015.6
20260905121933 72 155 0.0 0.0 0.00 0.00 0.00 87 1015.6
20260905121430 72 155 0.0 0.0 0.00 0.00 0.00 86 1015.6
20260905120930 72 155 0.0 0.0 0.00 0.00 0.00 86 1015.6
20260905115931 72 155 0.0 0.0 0.00 0.00 0.00 86 1015.4
20260905115431 72 155 0.0 0.0 0.00 0.00 0.00 86 1015.2
20260905114930 72 155 0.0 0.0 0.00 0.00 0.00 86 1015.3
20260905113930 72 155 0.0 0.0 0.00 0.00 0.00 85 1015.2
20260905113431 73 155 0.0 0.0 0.00 0.00 0.00 85 1015.3
20260905112931 73 155 0.0 0.0 0.00 0.00 0.00 85 1015.3
20260905112431 73 155 0.0 0.0 0.00 0.00 0.00 85 1015.2
20260905111930 73 155 0.0 0.0 0.00 0.00 0.00 85 1015.2
20260905111430 73 155 0.0 0.0 0.00 0.00 0.00 85 1015.1
20260905105930 73 155 0.0 0.0 0.00 0.00 0.00 84 1015.0
20260905105430 73 155 0.0 0.0 0.00 0.00 0.00 84 1015.0
20260905104430 73 155 0.0 0.0 0.00 0.00 0.00 84 1014.9
20260905103932 73 155 0.0 0.0 0.00 0.00 0.00 83 1014.9
20260905103431 73 155 0.0 0.0 0.00 0.00 0.00 83 1014.9
20260905102932 73 155 0.0 0.0 0.00 0.00 0.00 83 1014.9
20260905102430 73 155 0.0 0.0 0.00 0.00 0.00 82 1014.8
20260905101430 74 155 0.0 0.0 0.00 0.00 0.00 82 1014.7
20260905100430 74 155 0.0 0.0 0.00 0.00 0.00 82 1014.8
20260905095931 74 155 0.0 0.0 0.00 0.00 0.00 82 1014.8
20260905094930 74 155 0.0 0.0 0.00 0.00 0.00 81 1014.7
20260905094430 74 155 0.0 0.0 0.00 0.00 0.00 81 1014.7
20260905093931 74 155 0.0 0.0 0.00 0.00 0.00 81 1014.8
20260905093428 74 155 0.0 0.0 0.00 0.00 0.00 81 1014.8
20260905092926 74 155 0.0 0.0 0.00 0.00 0.00 81 1014.7
20260905092427 74 155 0.0 1.0 0.00 0.00 0.00 81 1014.7
20260905091926 75 155 0.0 1.0 0.00 0.00 0.00 81 1014.7
20260905091426 75 155 0.0 1.0 0.00 0.00 0.00 80 1014.7
20260905090926 75 155 0.0 1.0 0.00 0.00 0.00 80 1014.8
20260905090426 75 155 0.0 0.0 0.00 0.00 0.00 79 1014.7
20260905084915 76 155 0.0 0.0 0.00 0.00 0.00 78 1014.5
20260905084405 76 155 0.0 1.0 0.00 0.00 0.00 78 1014.5
20260905083904 76 155 0.0 1.0 0.00 0.00 0.00 78 1014.5
20260905082404 76 155 0.0 1.0 0.00 0.00 0.00 77 1014.3
20260905081402 76 155 0.0 0.0 0.00 0.00 0.00 76 1014.4
20260905080903 77 155 0.0 0.0 0.00 0.00 0.00 75 1014.5
20260905080402 77 155 0.0 0.0 0.00 0.00 0.00 75 1014.4
20260905075900 77 155 0.0 0.0 0.00 0.00 0.00 75 1014.4
20260905075401 77 155 0.0 0.0 0.00 0.00 0.00 75 1014.4
20260905074900 77 155 0.0 0.0 0.00 0.00 0.00 74 1014.4
20260905074400 78 155 0.0 0.0 0.00 0.00 0.00 74 1014.4
20260905073900 78 155 0.0 1.0 0.00 0.00 0.00 74 1014.5
20260905073401 78 155 0.0 1.0 0.00 0.00 0.00 73 1014.5
20260905072900 78 155 0.0 1.0 0.00 0.00 0.00 73 1014.5
20260905071842 78 155 0.0 1.0 0.00 0.00 0.00 72 1014.7
20260905071333 79 155 0.0 0.0 0.00 0.00 0.00 72 1014.7
20260905070832 79 155 0.0 1.0 0.00 0.00 0.00 71 1014.7
20260905070332 79 155 0.0 1.0 0.00 0.00 0.00 71 1014.7
20260905065832 79 155 0.0 1.0 0.00 0.00 0.00 71 1014.8
20260905064832 80 155 0.0 2.0 0.00 0.00 0.00 70 1014.8
20260905063832 80 93 0.0 2.0 0.00 0.00 0.00 70 1014.8
20260905063332 80 94 0.0 2.0 0.00 0.00 0.00 69 1014.8
20260905062831 80 94 0.0 2.0 0.00 0.00 0.00 69 1014.8
20260905062331 80 94 0.0 3.0 0.00 0.00 0.00 69 1014.9
20260905061830 80 95 0.0 3.0 0.00 0.00 0.00 69 1014.8
20260905060330 80 114 0.0 2.0 0.00 0.00 0.00 69 1014.9
20260905055331 80 100 0.0 2.0 0.00 0.00 0.00 69 1014.9
20260905053832 80 90 0.0 1.0 0.00 0.00 0.00 68 1014.9
20260905053332 80 90 0.0 1.0 0.00 0.00 0.00 68 1014.9
20260905051830 81 90 0.0 1.0 0.00 0.00 0.00 67 1014.9
20260905051332 81 90 0.0 1.0 0.00 0.00 0.00 67 1014.9
20260905050831 81 90 0.0 1.0 0.00 0.00 0.00 67 1014.9
20260905050331 81 90 0.0 1.0 0.00 0.00 0.00 66 1014.9
20260905045830 81 90 0.0 1.0 0.00 0.00 0.00 66 1014.9
20260905045331 82 90 0.0 1.0 0.00 0.00 0.00 65 1014.9
20260905044830 82 90 0.0 2.0 0.00 0.00 0.00 65 1014.9
20260905044331 82 90 0.0 2.0 0.00 0.00 0.00 65 1014.9
20260905043331 82 92 0.0 2.0 0.00 0.00 0.00 64 1014.8
20260905042831 82 92 0.0 2.0 0.00 0.00 0.00 64 1014.9
20260905042330 82 86 0.0 1.0 0.00 0.00 0.00 63 1014.8
20260905041831 83 86 0.0 1.0 0.00 0.00 0.00 63 1014.8
20260905041330 83 86 0.0 1.0 0.00 0.00 0.00 63 1014.8
20260905040831 83 86 0.0 1.0 0.00 0.00 0.00 62 1014.8
20260905040331 83 78 0.0 2.0 0.00 0.00 0.00 62 1014.7
20260905035831 83 71 0.0 2.0 0.00 0.00 0.00 62 1014.7
20260905035331 83 85 0.0 1.0 0.00 0.00 0.00 61 1014.7
20260905034830 84 85 0.0 2.0 0.00 0.00 0.00 61 1014.6
20260905034331 84 85 0.0 2.0 0.00 0.00 0.00 60 1014.7
20260905033830 84 83 0.0 1.0 0.00 0.00 0.00 60 1014.7
20260905033331 84 65 0.0 1.0 0.00 0.00 0.00 60 1014.7
20260905032830 85 65 0.0 1.0 0.00 0.00 0.00 59 1014.8
20260905032331 85 60 0.0 1.0 0.00 0.00 0.00 59 1014.7
20260905031830 85 57 0.0 3.0 0.00 0.00 0.00 58 1014.7
20260905031331 85 57 0.0 3.0 0.00 0.00 0.00 58 1014.7
20260905030831 85 112 0.0 3.0 0.00 0.00 0.00 58 1014.7
20260905030330 86 131 0.0 3.0 0.00 0.00 0.00 58 1014.6
20260905025832 86 110 0.0 3.0 0.00 0.00 0.00 57 1014.6
20260905025332 86 328 0.0 3.0 0.00 0.00 0.00 57 1014.5
20260905024832 86 88 0.0 2.0 0.00 0.00 0.00 57 1014.4
20260905024332 86 88 0.0 2.0 0.00 0.00 0.00 56 1014.3
20260905023332 87 90 0.0 2.0 0.00 0.00 0.00 56 1014.2
20260905022832 87 93 0.0 2.0 0.00 0.00 0.00 56 1014.1
20260905022330 87 93 0.0 2.0 0.00 0.00 0.00 55 1014.0
20260905021831 87 109 0.0 2.0 0.00 0.00 0.00 55 1014.0
20260905021331 87 94 1.0 2.0 0.00 0.00 0.00 55 1013.9
20260905020830 87 80 1.0 3.0 0.00 0.00 0.00 55 1013.8
20260905020331 87 134 1.0 3.0 0.00 0.00 0.00 55 1013.6
20260905015830 87 121 1.0 2.0 0.00 0.00 0.00 54 1013.5
20260905015331 88 127 0.0 2.0 0.00 0.00 0.00 54 1013.5
20260905014330 88 136 0.0 2.0 0.00 0.00 0.00 53 1013.4
20260905013831 89 103 0.0 1.0 0.00 0.00 0.00 53 1013.4
20260905013330 89 95 0.0 1.0 0.00 0.00 0.00 52 1013.3
20260905012831 89 83 0.0 1.0 0.00 0.00 0.00 52 1013.2
20260905012330 89 111 0.0 2.0 0.00 0.00 0.00 51 1013.2
20260905011831 90 85 0.0 2.0 0.00 0.00 0.00 50 1013.2
20260905011331 90 123 0.0 2.0 0.00 0.00 0.00 49 1013.2
20260905010819 90 96 1.0 2.0 0.00 0.00 0.00 48 1013.1
20260905010311 91 146 0.0 2.0 0.00 0.00 0.00 47 1013.0
20260905005807 91 65 0.0 2.0 0.00 0.00 0.00 46 1013.0
20260905005307 92 84 0.0 2.0 0.00 0.00 0.00 46 1013.0
20260905004807 92 102 0.0 3.0 0.00 0.00 0.00 45 1012.9
20260905004307 93 115 1.0 3.0 0.00 0.00 0.00 44 1012.8
20260905003307 94 98 0.0 3.0 0.00 0.00 0.00 43 1012.7
20260905002807 94 62 0.0 1.0 0.00 0.00 0.00 42 1012.7
20260905002307 94 94 0.0 2.0 0.00 0.00 0.00 42 1012.7
20260905001307 95 123 1.0 3.0 0.00 0.00 0.00 42 1012.7
20260905000807 95 126 1.0 3.0 0.00 0.00 0.00 40 1012.7
20260905000307 95 158 1.0 3.0 0.00 0.00 0.00 40 1012.7
20260904235805 95 84 1.0 5.0 0.00 0.00 0.00 40 1012.7
20260904235306 96 140 1.0 5.0 0.00 0.00 0.00 39 1012.7
20260904234803 96 158 2.0 6.0 0.00 0.00 0.00 39 1012.7
20260904234304 96 106 2.0 6.0 0.00 0.00 0.00 39 1012.8
20260904233804 96 146 1.0 5.0 0.00 0.00 0.00 39 1012.7
20260904233304 96 147 2.0 5.0 0.00 0.00 0.00 39 1012.7
20260904232804 96 175 2.0 7.0 0.00 0.00 0.00 38 1012.7
20260904232306 96 124 1.0 7.0 0.00 0.00 0.00 39 1012.7
20260904231804 97 140 2.0 5.0 0.00 0.00 0.00 38 1012.7
20260904230804 97 101 2.0 5.0 0.00 0.00 0.00 37 1012.8
20260904230303 97 143 2.0 4.0 0.00 0.00 0.00 38 1012.7
20260904225803 98 186 2.0 4.0 0.00 0.00 0.00 37 1012.7
20260904225306 98 195 1.0 3.0 0.00 0.00 0.00 36 1012.7
20260904224803 98 123 1.0 5.0 0.00 0.00 0.00 36 1012.7